Waarnemingen

Advertentie
Mijn weer
Perpignan, Frankrijk (7747): temperatuur & dauwpunt: 19.06.2019 20:00:00 - 25.06.2019 20:00:00 (CEST)Perpignan, Frankrijk (7747): temperatuur 5cm: 19.06.2019 20:00:00 - 25.06.2019 20:00:00 (CEST)Perpignan, Frankrijk (7747): temperatuur -20cm & temperatuur -100cm: 19.06.2019 20:00:00 - 25.06.2019 20:00:00 (CEST)Perpignan, Frankrijk (7747): windsnelheid & windstoten: 19.06.2019 20:00:00 - 25.06.2019 20:00:00 (CEST)Perpignan, Frankrijk (7747): windrichting: 19.06.2019 20:00:00 - 25.06.2019 20:00:00 (CEST)Perpignan, Frankrijk (7747): luchtdruk: 19.06.2019 20:00:00 - 25.06.2019 20:00:00 (CEST)Perpignan, Frankrijk (7747): zicht: 19.06.2019 20:00:00 - 25.06.2019 20:00:00 (CEST)Perpignan, Frankrijk (7747): neerslag: 19.06.2019 20:00:00 - 25.06.2019 20:00:00 (CEST)
Datum & Tijd tt [°C] td [°C] tt 5cm [°C] tt -20cm [°C] tt -100cm [°C] ff [km/u] ff [kn] fx [km/u] fx [kn] dd ppp [hPa] vv [km] rr [mm]
25.06.2019 20:00:00 26,1 18,5 27,0 28,9 22,3 22 12 37 20 OZO 1018,0 26 0,0
25.06.2019 19:00:00 30,7 15,5 33,1 28,7 22,3 24 13 41 22 OZO 1017,1 43 0,0
25.06.2019 18:00:00 29,8 18,3 34,1 28,4 22,3 21 11 34 19 OZO 1017,3 51 0,0
25.06.2019 17:00:00 28,6 19,0 34,6 27,9 22,3 21 11 33 18 O 1017,8 32 0,0
25.06.2019 16:00:00 28,0 20,3 37,0 27,3 22,3 23 12 35 19 O 1018,0 32 0,0
25.06.2019 15:00:00 29,6 19,0 40,1 26,8 22,3 20 11 31 17 O 1018,0 31 0,0
25.06.2019 14:00:00 30,1 18,2 38,7 26,2 22,3 19 10 31 17 O 1018,2 20 0,0
25.06.2019 13:00:00 29,6 17,1 37,1 25,8 22,3 21 12 33 18 O 1018,5 33 0,0
25.06.2019 12:00:00 30,6 13,8 38,9 25,6 22,3 18 10 32 17 ZO 1018,7 33 0,0
25.06.2019 11:00:00 28,8 17,7 34,5 25,5 22,3 9 5 19 10 Z 1018,6 24 0,0
25.06.2019 10:00:00 25,2 19,6 27,4 25,5 22,3 5 3 10 5 ZZW 1019,0 20 0,0
25.06.2019 09:00:00 22,3 19,8 23,7 25,6 22,2 5 3 11 6 O 1018,8 20 0,0
25.06.2019 08:00:00 20,9 19,7 19,4 25,8 22,2 4 2 11 6 NO 1018,3 13 0,0
25.06.2019 07:00:00 19,6 17,9 17,0 26,0 22,3 6 3 9 5 N 1018,0 17 0,0
25.06.2019 06:00:00 19,9 17,1 17,2 26,3 22,2 2 1 10 6 WNW 1017,4 27 0,0
25.06.2019 05:00:00 20,2 17,0 17,5 26,5 22,2 5 3 13 7 NNO 1016,8 31 0,0
25.06.2019 04:00:00 21,5 16,7 18,9 26,7 22,2 10 6 21 12 OZO 1016,6 34 0,0
25.06.2019 03:00:00 21,6 16,3 18,5 26,9 22,2 6 4 28 15 ONO 1016,5 39 0,0
25.06.2019 02:00:00 20,3 17,1 18,3 27,2 22,2 8 5 16 9 O 1016,6 34 0,0
25.06.2019 01:00:00 20,1 18,6 18,4 27,4 22,2 8 5 14 7 NO 1016,8 19 0,0
25.06.2019 00:00:00 20,1 18,8 18,5 27,6 22,2 7 4 15 8 NO 1016,5 16 0,0
24.06.2019 23:00:00 20,6 18,9 19,1 27,9 22,1 7 4 17 9 NNO 1016,5 21 0,0
24.06.2019 22:00:00 21,4 19,0 20,7 28,0 22,2 12 7 26 14 OZO 1015,9 30 0,0
24.06.2019 21:00:00 22,5 18,5 22,5 28,1 22,1 16 9 36 19 OZO 1015,6 39 0,0
24.06.2019 20:00:00 23,6 17,3 24,2 28,2 22,1 23 12 40 21 ZO 1015,2 37 0,0
24.06.2019 19:00:00 23,9 16,7 24,6 28,0 22,1 26 14 52 28 OZO 1015,0 31 0,0
24.06.2019 18:00:00 26,3 14,7 27,9 27,7 22,1 31 17 51 28 ZO 1014,6 25 0,0
24.06.2019 17:00:00 27,8 13,7 30,7 27,2 22,1 34 18 53 29 OZO 1014,7 19 0,0
24.06.2019 16:00:00 29,7 13,9 35,9 26,6 22,1 33 18 54 29 ZO 1014,8 21 0,0
24.06.2019 15:00:00 29,5 16,3 35,9 26,1 22,1 31 17 48 26 OZO 1015,2 23 0,0
24.06.2019 14:00:00 27,8 15,8 35,4 25,6 22,1 29 16 49 26 OZO 1016,2 26 0,0
24.06.2019 13:00:00 27,6 15,6 34,8 25,3 22,1 28 15 50 27 OZO 1016,3 30 0,0
24.06.2019 12:00:00 26,7 15,7 32,5 25,1 22,1 29 16 47 26 OZO 1016,2 35 0,0
24.06.2019 11:00:00 24,6 18,3 26,8 25,1 22,0 23 12 33 18 OZO 1016,3 26 0,0
24.06.2019 10:00:00 23,0 19,0 24,1 25,1 22,0 15 8 21 11 OZO 1016,3 20 0,0
24.06.2019 09:00:00 20,6 18,4 21,9 25,3 22,0 10 5 18 10 ONO 1016,0 15 0,0
24.06.2019 08:00:00 19,8 18,6 19,8 25,5 22,0 9 5 13 7 NO 1015,9 12 0,0
24.06.2019 07:00:00 18,9 17,9 19,0 25,6 22,0 4 2 6 4 N 1015,6 9 0,0
24.06.2019 06:00:00 18,6 18,1 16,2 25,9 22,0 5 3 9 5 W 1015,4 7 0,0
24.06.2019 05:00:00 18,1 17,3 16,3 26,1 22,0 5 3 9 5 WZW 1015,6 8 0,0
24.06.2019 04:00:00 18,9 18,1 17,0 26,4 22,0 4 2 9 5 NNO 1015,8 8 0,0
24.06.2019 03:00:00 19,2 18,2 17,3 26,6 21,9 6 3 8 5 O 1016,0 12 0,0
24.06.2019 02:00:00 19,5 18,5 17,3 26,8 22,0 4 2 9 5 ONO 1016,0 13 0,0
24.06.2019 01:00:00 19,8 18,6 18,2 27,1 21,9 6 3 8 4 NNO 1016,1 16 0,0
24.06.2019 00:00:00 20,2 18,5 18,7 27,3 22,0 4 2 8 4 NO 1016,0 20 0,0
23.06.2019 23:00:00 20,8 18,6 19,4 27,4 21,9 6 3 8 4 NO 1016,1 26 0,0
23.06.2019 22:00:00 21,5 18,1 20,4 27,6 21,9 6 3 10 5 ONO 1015,3 34 0,0
23.06.2019 21:00:00 22,7 18,0 22,8 27,6 22,0 8 5 14 8 NO 1015,0 38 0,0
23.06.2019 20:00:00 24,5 17,7 26,6 27,5 22,0 11 6 17 9 NO 1014,6 37 0,0
23.06.2019 19:00:00 25,6 17,3 29,6 27,2 22,0 13 7 20 11 ONO 1014,1 35 0,0
23.06.2019 18:00:00 26,6 17,1 32,6 26,8 21,9 15 8 23 12 O 1013,9 58 0,0
23.06.2019 17:00:00 27,7 17,2 35,0 26,3 21,9 15 8 24 13 O 1014,1 51 0,0
23.06.2019 16:00:00 27,9 16,8 39,1 25,7 21,9 16 8 27 15 NO 1014,0 53 0,0
23.06.2019 15:00:00 27,7 14,0 41,3 25,1 21,9 15 8 26 14 ONO 1014,0 58 0,0
23.06.2019 14:00:00 26,9 15,6 40,1 24,6 21,9 16 8 25 14 ONO 1014,2 60 0,0
23.06.2019 13:00:00 25,6 17,3 32,3 24,2 21,9 16 9 26 14 NO 1014,5 60 0,0
23.06.2019 12:00:00 25,5 17,7 32,7 23,9 21,9 18 10 27 15 NO 1014,4 50 0,0
23.06.2019 11:00:00 24,9 17,9 32,0 23,8 21,9 16 8 27 14 ONO 1014,4 35 0,0
23.06.2019 10:00:00 24,1 16,4 26,6 23,8 21,9 14 8 21 11 NO 1014,3 45 0,0
23.06.2019 09:00:00 22,3 14,2 20,8 24,0 21,9 8 4 12 7 N 1014,4 60 0,0
23.06.2019 08:00:00 19,4 15,3 17,1 24,2 21,8 0 0 6 3 N 1014,1 60 0,0
23.06.2019 07:00:00 17,2 14,5 14,0 24,4 22,0 5 3 7 4 ZW 1014,1 58 0,0
23.06.2019 06:00:00 16,2 13,5 13,9 24,7 21,9 2 1 8 4 N 1014,2 54 0,0
23.06.2019 05:00:00 16,6 13,9 14,3 24,9 22,0 5 3 8 4 WZW 1014,2 60 0,0
23.06.2019 04:00:00 17,4 13,7 14,7 25,1 21,9 3 2 6 3 ZW 1014,1 60 0,0
23.06.2019 03:00:00 17,9 14,2 15,9 25,3 21,9 6 3 7 4 W 1014,3 60 0,0
23.06.2019 02:00:00 18,3 14,8 15,9 25,6 22,0 5 3 8 4 WZW 1014,4 55 0,0
23.06.2019 01:00:00 18,9 15,0 16,7 25,8 21,9 6 3 9 5 W 1014,6 55 0,0
23.06.2019 00:00:00 20,2 15,6 17,1 26,0 21,9 5 3 11 6 ZZW 1014,4 59 0,0
22.06.2019 23:00:00 21,0 15,3 18,2 26,1 21,9 6 3 8 5 NW 1014,7 18 0,0
22.06.2019 22:00:00 22,9 15,7 19,5 26,2 21,9 4 2 9 5 ONO 1014,4 58 0,0
22.06.2019 21:00:00 24,6 13,8 22,3 26,2 21,9 5 3 13 7 OZO 1014,1 60 0,0
22.06.2019 20:00:00 25,8 13,3 26,4 26,1 21,9 10 5 17 9 OZO 1014,2 58 0,0
22.06.2019 19:00:00 25,7 12,9 26,9 25,8 21,9 14 7 24 13 ZO 1013,8 48 0,0
22.06.2019 18:00:00 27,2 13,5 31,8 25,4 22,0 16 9 25 13 ZO 1013,8 60 0,0
22.06.2019 17:00:00 28,2 12,5 34,5 24,9 22,0 15 8 29 16 OZO 1014,1 60 0,0
22.06.2019 16:00:00 29,4 9,0 34,4 24,3 22,0 13 7 24 13 N 1014,4 60 0,0
22.06.2019 15:00:00 28,2 9,9 41,2 23,7 22,0 13 7 28 15 NW 1015,2 59 0,0
22.06.2019 14:00:00 27,1 10,3 40,8 23,1 22,0 14 7 29 16 WNW 1015,8 43 0,0
22.06.2019 13:00:00 25,7 11,8 38,3 22,6 22,0 16 8 29 16 NW 1016,5 40 0,0
22.06.2019 12:00:00 24,3 12,9 33,9 22,4 21,9 21 12 34 18 NW 1016,7 41 0,0
22.06.2019 11:00:00 23,3 13,2 29,2 22,2 22,0 20 11 35 19 NW 1016,4 42 0,0
22.06.2019 10:00:00 21,9 13,0 23,7 22,2 22,0 20 11 38 20 NW 1016,5 42 0,0
22.06.2019 09:00:00 20,4 12,9 19,8 22,3 21,9 20 11 39 21 NW 1016,9 46 0,0
22.06.2019 08:00:00 19,1 12,8 16,6 22,4 22,0 11 6 27 15 WNW 1017,0 46 0,0
22.06.2019 07:00:00 17,8 12,9 15,2 22,6 22,0 10 5 24 13 WNW 1016,8 47 0,0
22.06.2019 06:00:00 17,4 12,7 15,6 22,7 22,0 13 7 32 17 WNW 1016,7 60 0,0
22.06.2019 05:00:00 17,7 12,8 15,4 23,0 22,1 16 9 30 16 NW 1016,8 60 0,0
22.06.2019 04:00:00 17,8 12,9 15,9 23,2 22,1 13 7 32 17 WNW 1017,2 60 0,0
22.06.2019 03:00:00 17,8 12,7 16,3 23,4 22,0 16 8 51 27 NW 1017,4 60 0,0
22.06.2019 02:00:00 18,6 12,8 17,1 23,6 22,0 28 15 54 29 NW 1017,3 60 0,0
22.06.2019 01:00:00 18,3 12,7 17,0 23,8 22,0 30 16 53 28 NW 1017,6 60 0,0
22.06.2019 00:00:00 18,6 13,0 17,5 24,0 22,0 24 13 43 23 NW 1017,3 60 0,0
21.06.2019 23:00:00 18,6 13,0 17,7 24,2 22,0 29 15 50 27 NW 1017,3 60 0,0
21.06.2019 22:00:00 18,9 12,9 17,6 24,4 21,9 29 16 54 29 NW 1016,9 60 0,0
21.06.2019 21:00:00 18,8 12,8 18,1 24,5 22,0 32 17 56 30 NW 1016,2 60 0,0
21.06.2019 20:00:00 21,2 13,6 20,5 24,6 22,0 31 17 55 30 NW 1015,7 38 0,0
21.06.2019 19:00:00 20,2 14,1 20,4 24,6 22,0 31 17 49 27 NW 1015,7 47 0,0
21.06.2019 18:00:00 21,0 14,9 21,4 24,5 22,0 28 15 48 26 WNW 1015,5 33 0,0
21.06.2019 17:00:00 23,4 18,1 23,2 24,4 21,9 21 11 38 20 NW 1015,3 58 0,0
21.06.2019 16:00:00 21,4 19,0 20,5 24,4 21,9 3 2 15 8 WZW 1015,4 16 1,4
21.06.2019 15:00:00 22,4 17,7 22,3 24,4 21,9 8 5 13 7 NW 1015,5 45 0,0
21.06.2019 14:00:00 22,2 18,8 20,8 24,4 22,0 3 2 12 7 Z 1015,5 48 1,6
21.06.2019 13:00:00 22,8 17,9 20,8 24,2 22,0 10 5 18 10 W 1015,9 12 0,4
21.06.2019 12:00:00 25,2 16,1 29,8 24,1 21,8 10 5 21 11 NW 1015,3 60 0,0
21.06.2019 11:00:00 24,2 16,2 26,9 24,0 22,0 11 6 22 12 NNW 1015,3 54 0,0
21.06.2019 10:00:00 23,3 17,1 22,8 24,0 22,0 10 6 21 11 NW 1015,4 45 0,0
21.06.2019 09:00:00 21,0 16,2 19,9 24,2 21,8 11 6 16 9 WNW 1015,3 55 0,0
21.06.2019 08:00:00 18,7 16,7 17,5 24,3 21,9 8 5 15 8 W 1015,1 58 0,0
21.06.2019 07:00:00 17,3 15,8 16,6 24,5 21,9 10 6 15 8 WZW 1015,0 48 0,0
21.06.2019 06:00:00 17,7 16,0 16,5 24,7 21,8 13 7 16 8 WZW 1014,9 43 0,0
21.06.2019 05:00:00 17,4 16,3 16,6 24,9 21,8 10 5 16 9 WZW 1014,8 34 0,0
21.06.2019 04:00:00 17,9 16,2 16,5 25,1 21,9 6 3 8 4 WZW 1014,8 35 0,0
21.06.2019 03:00:00 18,6 16,0 17,1 25,4 21,8 3 2 23 13 NNW 1014,9 48 0,0
21.06.2019 02:00:00 19,0 16,2 16,9 25,6 21,8 10 5 19 10 NW 1014,8 60 0,0
21.06.2019 01:00:00 19,1 16,5 17,5 25,9 21,8 11 6 22 12 NW 1014,7 60 0,0
21.06.2019 00:00:00 19,4 16,8 17,8 26,1 21,9 10 5 31 17 WZW 1014,9 60 0,2
20.06.2019 23:00:00 19,8 16,8 18,3 26,3 21,8 13 7 35 19 WNW 1015,7 52 0,0
20.06.2019 22:00:00 19,6 17,2 18,4 26,6 21,8 14 7 27 15 NW 1014,7 46 0,0
20.06.2019 21:00:00 19,2 17,7 18,6 26,7 21,7 15 8 28 15 WNW 1014,5 15 1,6
20.06.2019 20:00:00 19,7 18,2 19,0 26,9 21,8 13 7 27 15 W 1014,4 12 1,8
20.06.2019 19:00:00 19,9 17,9 19,1 26,9 21,8 22 12 30 16 WNW 1014,1 8 2,2
20.06.2019 18:00:00 23,8 15,8 20,8 26,7 21,7 16 9 24 13 WZW 1013,8 34 0,0
20.06.2019 17:00:00 25,4 15,4 25,5 26,5 21,8 14 8 23 13 ZO 1012,6 36 0,0
20.06.2019 16:00:00 28,9 15,8 33,0 26,1 21,7 14 7 23 12 O 1013,2 60 0,0
20.06.2019 15:00:00 28,4 14,2 34,5 25,7 21,7 11 6 26 14 O 1013,6 52 0,0
20.06.2019 14:00:00 28,2 14,4 41,5 25,4 21,7 7 4 27 15 N 1014,4 60 0,0
20.06.2019 13:00:00 27,3 15,6 34,1 25,2 21,7 14 8 33 18 N 1014,8 60 0,0
20.06.2019 12:00:00 25,4 16,0 32,1 25,1 21,7 11 6 24 13 NNO 1014,9 59 0,0
20.06.2019 11:00:00 24,7 15,9 30,6 25,1 21,7 16 9 27 15 NNW 1014,8 18 0,0
20.06.2019 10:00:00 24,9 15,8 27,4 25,1 21,7 11 6 23 12 NW 1014,6 58 0,0
20.06.2019 09:00:00 23,2 15,5 23,7 25,3 21,7 10 6 17 9 NW 1014,5 59 0,0
20.06.2019 08:00:00 22,1 15,4 19,9 25,4 21,7 14 7 28 15 WNW 1014,3 41 0,0
20.06.2019 07:00:00 19,8 17,2 18,8 25,6 21,6 6 3 10 6 W 1014,5 31 0,0
20.06.2019 06:00:00 19,1 17,9 18,6 25,8 21,6 6 4 10 5 WZW 1014,3 19 0,0
20.06.2019 05:00:00 18,8 17,8 18,4 26,0 21,6 2 1 7 4 W 1014,5 17 0,0
20.06.2019 04:00:00 18,7 17,9 16,5 26,3 21,6 3 2 8 4 NO 1013,9 12 0,0
20.06.2019 03:00:00 18,4 17,2 16,0 26,5 21,6 3 2 5 3 NO 1014,0 14 0,0
20.06.2019 02:00:00 18,6 17,3 16,4 26,7 21,6 2 1 5 3 ZZW 1014,1 20 0,0
20.06.2019 01:00:00 19,0 17,8 18,2 26,9 21,6 3 2 8 4 NO 1014,2 15 0,0
20.06.2019 00:00:00 19,3 18,0 19,0 27,1 21,6 6 3 10 5 ONO 1014,0 15 0,0
19.06.2019 23:00:00 20,0 17,6 19,7 27,2 21,6 8 4 11 6 ONO 1013,7 24 0,0
19.06.2019 22:00:00 21,5 17,7 21,3 27,3 21,6 8 5 11 6 ONO 1012,9 32 0,0
19.06.2019 21:00:00 24,3 16,6 24,7 27,3 21,5 3 2 10 5 O 1012,5 51 0,0
19.06.2019 20:00:00 25,3 16,4 27,4 27,2 21,5 6 3 10 5 O 1012,2 20 0,0

tt = temperatuur
td = dauwpunt
tt 5cm = temperatuur 5cm
tt -20cm = temperatuur -20cm
tt -100cm = temperatuur -100cm
ff = windsnelheid
fx = windstoten
dd = windrichting
ppp = luchtdruk
vv = zicht
rr = neerslag

Weerstations in de omgeving